Lid_Strength_Index
1 1 1 1 1 1 1 1 3 5 4 2 2 -0 -0 -0 -0 -1 -1 2 3 4 4 4 3 2 1 1 0 0 -0 -1 -1 -0 -0 -0 -0 -1
1 1 1 1 1 1 1 1 1 3 4 2 1 0 -1 -0 -0 -1 -1 1 3 4 4 4 4 3 2 1 1 1 0 0 0 0 -0 -0 -1 -1
0 1 1 1 1 1 1 1 1 2 3 2 1 -0 0 0 -0 -1 -1 -0 -0 3 4 4 4 4 3 2 2 2 1 1 1 1 1 0 -0 -1
3 2 1 1 1 1 1 2 1 1 2 3 1 1 1 0 0 0 0 -0 -0 3 5 5 5 5 4 4 3 3 3 2 2 2 1 1 0 -1
5 4 2 1 2 1 1 2 2 1 1 2 3 1 1 0 1 0 0 0 -0 2 5 5 5 5 4 4 4 4 5 5 5 4 3 3 1 1
5 3 3 3 2 1 1 2 1 2 2 2 2 2 2 1 1 2 2 1 1 -0 2 2 4 4 5 4 4 5 6 7 7 5 5 4 4 4
5 5 4 3 3 3 4 1 1 2 2 3 3 3 2 2 2 2 2 2 1 0 1 1 1 2 3 4 2 4 6 7 7 7 7 7 6 6
6 5 4 4 4 4 4 4 3 2 3 3 3 3 3 2 2 2 2 3 4 0 1 2 0 1 0 0 3 6 7 7 7 7 7 7 7 7
5 5 5 5 4 4 3 3 3 4 4 2 3 3 3 1 1 2 2 3 3 1 1 3 1 2 0 0 7 7 8 8 8 7 7 8 8 9
5 5 5 5 4 4 3 2 1 1 1 1 1 1 1 0 0 1 1 2 1 1 1 4 2 2 0 4 7 8 8 8 8 8 8 9 10 10
5 4 4 4 5 7 4 3 3 2 1 4 4 4 5 6 4 1 3 3 4 3 1 3 2 3 3 4 5 8 9 8 8 8 9 10 11 10
4 4 5 5 6 7 5 4 5 4 2 1 1 2 4 1 6 0 1 4 4 4 2 3 4 4 6 4 5 5 6 8 9 9 9 9 8 6
4 4 4 6 8 8 8 4 4 2 2 1 1 1 1 1 1 0 1 2 3 3 1 1 3 3 4 6 5 4 4 7 6 9 10 9 9 7
4 4 3 6 8 8 8 7 7 5 2 2 2 2 2 2 1 1 0 0 -0 1 0 0 2 3 4 6 6 4 4 4 5 6 6 9 10 9
5 6 7 7 8 8 9 8 8 3 2 2 3 3 2 1 1 1 0 0 0 1 0 0 1 2 3 3 5 4 5 5 5 6 6 5 5 5
6 5 6 6 7 5 5 7 3 1 2 2 3 2 1 1 2 1 2 2 3 2 1 0 0 1 2 2 4 5 4 6 6 6 5 5 5 5
10 8 6 5 5 4 2 2 2 2 2 2 2 3 3 2 2 2 2 2 3 3 3 2 2 2 2 1 3 3 4 5 6 6 6 7 7 6
7 5 5 6 5 4 3 3 3 3 2 2 2 3 3 3 3 2 2 3 3 3 3 2 2 2 3 3 4 3 3 4 5 6 7 9 11 10
5 5 5 5 5 3 3 3 3 3 2 2 3 3 3 4 4 4 3 3 3 3 3 2 2 3 5 6 5 10 5 6 7 8 8 9 10 12
4 4 4 4 4 4 3 3 3 2 3 3 3 3 3 5 5 4 4 3 3 3 3 2 2 3 4 4 4 7 12 6 7 10 14 14 14 14
3 3 4 2 2 4 4 3 3 5 4 3 3 3 3 3 3 2 3 6 4 3 4 3 2 8 2 3 6 8 10 11 7 8 12 12 14 14
4 2 2 2 2 2 2 2 2 3 3 3 2 2 2 2 2 2 2 3 3 3 3 2 1 1 2 2 6 10 11 11 10 11 11 11 11 13
6 5 2 2 2 2 2 1 2 2 2 2 2 2 2 2 2 2 2 2 2 3 3 3 2 1 2 5 9 9 11 10 10 10 11 11 11 11